[keps] orb07053.2l.amsat

Ray Hoad r.hoad at att.net
Thu Feb 22 19:28:11 PST 2007


SB KEPS @ AMSAT  $ORB07053.N
2Line Orbital Elements 07053.AMSAT

HR AMSAT ORBITAL ELEMENTS FOR AMATEUR SATELLITES IN NASA FORMAT
FROM WA5QGD FORT WORTH,TX February 22, 2007
Send SUBSCRIBE KEPS/UNSUBSCRIBE KEPS to majordomo at amsat.org only
BID: ORB07053.N

DECODE 2-LINE ELSETS WITH THE FOLLOWING KEY:
1 AAAAAU 00  0  0 BBBBB.BBBBBBBB  .CCCCCCCC  00000-0  00000-0 0  DDDZ
2 AAAAA EEE.EEEE FFF.FFFF GGGGGGG HHH.HHHH III.IIII JJ.JJJJJJJJKKKKKZ
KEY: A-CATALOGNUM B-EPOCHTIME C-DECAY D-ELSETNUM E-INCLINATION F-RAAN
G-ECCENTRICITY H-ARGPERIGEE I-MNANOM J-MNMOTION K-ORBITNUM Z-CHECKSUM

TO ALL RADIO AMATEURS BT

AO-07
1 07530U 74089B   07052.74139395 -.00000028  00000-0  10000-3 0  8116
2 07530 101.5330 094.0808 0012127 120.5932 239.6336 12.53572551476650
AO-10
1 14129U 83058B   07051.97252659 -.00000067  00000-0  10000-3 0 03610
2 14129 026.8971 290.5042 6053217 359.8030 000.1824 02.05870325178177
UO-11
1 14781U 84021B   07052.54448836 -.00000073  00000-0 -24036-5 0  3066
2 14781 098.1989 072.9599 0008864 177.2936 182.8356 14.79522747232636
RS-10/11
1 18129U 87054A   07052.74610958  .00000020  00000-0  53823-5 0 02372
2 18129 082.9285 143.5804 0012894 114.4650 245.7851 13.72784201985398
RS-15
1 23439U 94085A   07053.83639148 -.00000039  00000-0  10597-3 0   128
2 23439 064.8156 191.8459 0162470 210.8217 148.3086 11.27551811500806
FO-29
1 24278U 96046B   07052.91127719 -.00000040  00000-0 -53943-5 0 04540
2 24278 098.5344 028.1134 0351300 022.1615 339.4294 13.52928045519318
SO-33
1 25509U 98061B   07053.62714394  .00000198  00000-0  27045-4 0  8704
2 25509 031.4296 153.4449 0355137 145.8811 216.5171 14.28149069434862
AO-40
1 26609U 00072B   07047.31981948  .00000070  00000-0  10000-3 0  8410
2 26609 004.8423 174.2167 7994411 274.6516 008.5063 01.25586463 28923
VO-52
1 28650U 05017B   07053.40981443 -.00000243  00000-0 -24167-4 0  5612
2 28650 097.8422 126.6444 0026136 267.4723 092.3496 14.81266560 97425
PO-63
1 29712U 07001D   07053.62050396  .00000583  00000-0  84762-4 0  1275
2 29712 097.9362 114.3119 0015310 137.7474 222.4928 14.79561474  6397
AO-16
1 20439U 90005D   07053.40989142  .00000023  00000-0  23811-4 0  9729
2 20439 098.1923 054.3127 0010972 164.0865 196.0660 14.31751101892127
LO-19
1 20442U 90005G   07052.55926620 -.00000071  00000-0 -11371-4 0 09004
2 20442 098.1824 062.9863 0011965 166.1245 194.0278 14.31991919892149
AO-27
1 22825U 93061C   07052.54292266 -.00000199  00000-0 -62118-4 0  6224
2 22825 098.3180 027.5490 0007603 240.8013 119.2397 14.29198922698979
IO-26
1 22826U 93061D   07053.59007911 -.00000006  00000-0  14017-4 0  3174
2 22826 098.3100 029.6670 0008133 235.8630 124.1780 14.29445469699202
PO-28
1 22829U 93061G   07052.55261730 -.00000081  00000-0 -15209-4 0  5971
2 22829 098.2994 029.8593 0009239 210.9585 149.1057 14.30143323699280
GO-32
1 25397U 98043D   07053.76899682 -.00000088  00000-0 -20544-4 0  2372
2 25397 098.4315 105.9030 0001255 163.3576 196.7658 14.23120210447889
MO-46
1 26548U 00057D   07052.54364528  .00000085  00000-0  28469-4 0  7284
2 26548 064.5573 180.4166 0028438 212.9092 147.0248 14.83101542346382
NO-44
1 26931U 01043C   07053.55347870 -.00000178  00000-0 -37431-4 0  5270
2 26931 067.0506 082.7788 0006080 277.9822 082.0569 14.29472991281715
SO-50
1 27607U 02058C   07052.56910646 -.00000146  00000-0 -14034-5 0  2485
2 27607 064.5570 076.0532 0041003 037.7071 322.6862 14.71228897224115
CO-55
1 27844U 03031E   07052.93956834  .00000047  00000-0  42031-4 0 09673
2 27844 098.7209 062.8049 0010698 065.3739 294.8544 14.20492982189115
CO-57
1 27848U 03031J   07052.94553866  .00000045  00000-0  41243-4 0 09296
2 27848 098.7202 062.0500 0010633 067.9614 292.2690 14.20314732189092
AO-51
1 28375U 04025K   07052.57361329  .00000016  00000-0  17720-4 0  7532
2 28375 098.1305 097.7624 0083529 172.2193 188.0316 14.40556030139064
CO-56
1 28941U 06005C   07052.86936447  .00016643  25265-5  18861-3 0 03600
2 28941 098.1461 101.4619 0242470 320.2669 038.0907 15.35035297055719
HO-59
1 29484U 06041F   07052.82468534  .00033738  28602-5  27136-3 0 02051
2 29484 098.3041 085.7974 0238807 317.2223 041.0616 15.42326214023241
NO-60
1 29661U 06055C   07052.92491225  .00051714  12069-4  18795-3 0 00789
2 29661 051.6465 335.7035 0009857 244.3921 115.6063 15.89005677009989
NO-61
1 29667U 06055J   07052.96388241  .00013372  00000-0  61225-4 0 00640
2 29667 051.6394 336.6809 0014839 252.0961 107.8421 15.83976747009712
NOAA-10
1 16969U 86073A   07052.63651584  .00000044  00000-0  36078-4 0 05562
2 16969 098.7531 069.7078 0012770 141.0792 219.1309 14.27318198062742
NOAA-11
1 19531U 88089A   07052.29413288  .00000260  00000-0  15730-3 0 05480
2 19531 098.8134 142.9029 0011832 004.6764 355.4527 14.14836424949766
NOAA-12
1 21263U 91032A   07052.56114160 -.00000109  00000-0 -27300-4 0 00424
2 21263 098.7492 050.0148 0013616 084.4754 275.7962 14.25522097819779
MET-3/5
1 21655U 91056A   07052.92654857  .00000051  00000-0  10000-3 0 02982
2 21655 082.5517 084.3819 0013821 132.2693 227.9602 13.17010095746230
MET-2/21
1 22782U 93055A   07052.66491210  .00000110  00000-0  85931-4 0  7547
2 22782 082.5495 133.5698 0021873 196.4109 163.6357 13.83613896680544
OKEAN-4
1 23317U 94066A   07052.69507543  .00000355  00000-0  41179-4 0  1928
2 23317 082.5374 044.2735 0020558 273.9403 085.9486 14.82470192666949
NOAA-14
1 23455U 94089A   07052.71612773  .00000183  00000-0  12056-3 0 05329
2 23455 099.0028 118.2201 0009942 069.8389 290.3837 14.13701578626329
SICH-1
1 23657U 95046A   07052.65649917 -.00000008  00000-0 -39503-5 0  9948
2 23657 082.5308 185.2267 0022481 262.7006 097.1659 14.81452585618928
NOAA-15
1 25338U 98030A   07052.56775191 -.00000108  00000-0 -27993-4 0 08901
2 25338 098.5280 052.5275 0010675 011.9059 348.2355 14.24626925456225
RESURS
1 25394U 98043A   07053.75783813  .00000041  00000-0  35872-4 0  5781
2 25394 098.4577 112.7363 0001575 130.7729 229.3587 14.24128249448060
FENGYUN1
1 25730U 99025A   07054.03843911  .00000362  00000-0  23946-3 0  9759
2 25730 098.6814 042.2699 0021551 086.6231 273.7394 14.07421237401402
OKEAN-0
1 25860U 99039A   07052.58221724  .00000062  00000-0  16757-4 0  9848
2 25860 097.7308 060.2333 0001770 058.5210 301.6174 14.73431827408475
NOAA-16
1 26536U 00055A   07052.57951081 -.00000253  00000-0 -11197-3 0 03002
2 26536 099.1044 027.5836 0011108 135.9976 224.2077 14.12404702330783
NOAA-17
1 27453U 02032A   07052.92303503  .00000092  00000-0  58989-4 0 03164
2 27453 098.5924 124.9363 0012516 072.6062 287.6451 14.23855743242313
NOAA-18
1 28654U 05018A   07052.74345680  .00000372  00000-0  23101-3 0 08564
2 28654 098.8185 356.0313 0013770 233.6568 126.3309 14.11040540090573
HUBBLE
1 20580U 90037B   07053.71656698  .00000378  00000-0  16547-4 0  8137
2 20580 028.4661 216.5401 0003598 321.4786 038.5546 15.00194259722759
UARS
1 21701U 91063B   07052.91364912  .00004335  00000-0  80427-4 0 00024
2 21701 056.9763 093.7189 0092644 332.9691 026.6557 15.46766483847903
PO-34
1 25520U 98064B   07052.71478949  .00000440  00000-0  12005-4 0  6799
2 25520 028.4591 161.5571 0005152 084.2315 275.8867 15.16929791459974
ISS
1 25544U 98067A   07054.03741851  .00094535  00000-0  52134-3 0  6963
2 25544 051.6350 333.8996 0020887 240.3422 243.4041 15.78577289472746
OO-38
1 26063U 00004C   07052.70090799 -.00000024  00000-0  11947-4 0  8459
2 26063 100.2202 034.0216 0037313 124.6149 235.8552 14.35796361370472
NO-45
1 26932U 01043D   07053.55444281 -.00000016  00000-0  25985-4 0  5333
2 26932 067.0531 082.5245 0004403 286.8854 073.1760 14.29550046281757
UWE-1
1 28892U 05043C   07052.28044317  .00000157  00000-0  42659-4 0 06837
2 28892 098.1442 311.1506 0018386 112.6584 247.6557 14.59466892070309
CO-58
1 28895U 05043F   07052.19442910  .00000138  00000-0  38636-4 0 06649
2 28895 098.1461 311.2340 0018991 113.3998 246.9193 14.59516404070177
NCUBE2
1 28897U 05043H   07052.21348316  .00000137  00000-0  38341-4 0 01905
2 28897 098.1444 311.2183 0018031 114.1038 246.2054 14.59676221062459
NMARS
1 29662U 06055D   07052.96878526  .00066060  12740-4  22138-3 0 00879
2 29662 051.6424 335.2293 0009850 238.7723 121.2319 15.90334462009881
FCAL
1 29664U 06055F   07052.95287874  .00020183  00000-0  87638-4 0 00651
2 29664 051.6393 336.6053 0014071 248.2409 111.7098 15.84704255009843
/EX






More information about the Keps mailing list